• In Belarus
  • List of Countries
  • For 7 days
  • Water Temperature
  • Satellite Maps
  • Weather Map
  • Weather Widgets
  • user-avatar
    Login

    Hourly Weather Salzburg

    Today, 20 October, Friday

    Time Temperature Precipitation Wind Pressure Humidity
    00:00 +3°C° 0 mm 2 mps 625 mmHg 64%
    01:00 +3°C° 0 mm 2 mps 625 mmHg 62%
    02:00 +3°C° 0 mm 2 mps 625 mmHg 60%
    03:00 +3°C° 0 mm 2 mps 625 mmHg 58%
    04:00 +4°C° 0 mm 1 mps 625 mmHg 57%
    05:00 +4°C° 0 mm 1 mps 625 mmHg 56%
    06:00 +4°C° 0 mm 1 mps 625 mmHg 55%
    07:00 +4°C° 0 mm 1 mps 625 mmHg 54%
    08:00 +7°C° 0 mm 1 mps 626 mmHg 49%
    09:00 +10°C° 0 mm 1 mps 628 mmHg 44%
    10:00 +11°C° 0 mm 0 mps 629 mmHg 39%
    11:00 +13°C° 0 mm 1 mps 629 mmHg 39%
    12:00 +14°C° 0 mm 1 mps 629 mmHg 39%
    13:00 +14°C° 0 mm 1 mps 629 mmHg 39%
    14:00 +13°C° 0 mm 1 mps 629 mmHg 48%
    15:00 +12°C° 0 mm 1 mps 629 mmHg 56%
    16:00 +11°C° 0 mm 1 mps 628 mmHg 65%
    17:00 +9°C° 0 mm 1 mps 628 mmHg 71%
    18:00 +7°C° 0 mm 1 mps 627 mmHg 78%
    19:00 +5°C° 0 mm 1 mps 627 mmHg 85%
    20:00 +5°C° 0 mm 1 mps 627 mmHg 83%
    21:00 +5°C° 0 mm 1 mps 627 mmHg 81%
    22:00 +5°C° 0 mm 1 mps 627 mmHg 80%
    23:00 +5°C° 0 mm 1 mps 627 mmHg 78%

    Tomorrow, 21 October, Saturday

    Time Temperature Precipitation Wind Pressure Humidity
    00:00 +5°C° 0 mm 1 mps 627 mmHg 76%
    01:00 +4°C° 0 mm 1 mps 627 mmHg 74%
    02:00 +5°C° 0 mm 1 mps 627 mmHg 72%
    03:00 +5°C° 0 mm 1 mps 627 mmHg 71%
    04:00 +5°C° 0 mm 1 mps 627 mmHg 70%
    05:00 +5°C° 0 mm 1 mps 627 mmHg 70%
    06:00 +4°C° 0 mm 1 mps 627 mmHg 71%
    07:00 +4°C° 0 mm 1 mps 627 mmHg 71%
    08:00 +7°C° 0 mm 1 mps 628 mmHg 65%
    09:00 +9°C° 0 mm 1 mps 629 mmHg 59%
    10:00 +11°C° 0 mm 0 mps 629 mmHg 52%
    11:00 +12°C° 0 mm 0 mps 629 mmHg 51%
    12:00 +14°C° 0 mm 1 mps 629 mmHg 49%
    13:00 +14°C° 0 mm 1 mps 629 mmHg 48%
    14:00 +14°C° 0 mm 1 mps 629 mmHg 54%
    15:00 +12°C° 0 mm 0 mps 628 mmHg 61%
    16:00 +11°C° 0 mm 0 mps 628 mmHg 68%
    17:00 +9°C° 0 mm 0 mps 627 mmHg 73%
    18:00 +8°C° 0 mm 1 mps 627 mmHg 78%
    19:00 +7°C° 0 mm 1 mps 626 mmHg 83%
    20:00 +6°C° 0 mm 1 mps 626 mmHg 82%
    21:00 +6°C° 0 mm 1 mps 626 mmHg 82%
    22:00 +6°C° 0 mm 1 mps 626 mmHg 81%
    23:00 +6°C° 0 mm 1 mps 626 mmHg 82%

    Day after tomorrow, 22 October, Sunday

    Time Temperature Precipitation Wind Pressure Humidity
    00:00 +6°C° 0 mm 1 mps 626 mmHg 84%
    01:00 +5°C° 0 mm 1 mps 626 mmHg 85%
    02:00 +5°C° 0.5 mm 1 mps 626 mmHg 88%
    03:00 +4°C° 0.5 mm 2 mps 626 mmHg 91%
    04:00 +3°C° 0.5 mm 2 mps 626 mmHg 95%
    05:00 +3°C° 0.6 mm 2 mps 626 mmHg 95%
    06:00 +3°C° 0.6 mm 2 mps 626 mmHg 96%
    07:00 +3°C° 0.6 mm 2 mps 626 mmHg 97%
    08:00 +3°C° 0.9 mm 2 mps 625 mmHg 96%
    09:00 +3°C° 0.9 mm 2 mps 625 mmHg 95%
    10:00 +3°C° 0.9 mm 2 mps 625 mmHg 95%
    11:00 +3°C° 2 mm 2 mps 625 mmHg 95%
    12:00 +2°C° 2 mm 2 mps 625 mmHg 95%
    13:00 +2°C° 2 mm 2 mps 624 mmHg 95%
    14:00 +2°C° 2 mm 2 mps 624 mmHg 95%
    15:00 +1°C° 2 mm 2 mps 624 mmHg 95%
    16:00 +1°C° 2 mm 2 mps 624 mmHg 95%
    17:00 -1°C° 1.3 mm 2 mps 624 mmHg 95%
    18:00 -1°C° 1.3 mm 2 mps 624 mmHg 96%
    19:00 -1°C° 1.3 mm 2 mps 624 mmHg 96%
    20:00 -2°C° 0.8 mm 2 mps 624 mmHg 96%
    21:00 -2°C° 0.8 mm 2 mps 624 mmHg 96%
    22:00 -3°C° 0.8 mm 2 mps 624 mmHg 96%
    23:00 -3°C° 0.6 mm 2 mps 624 mmHg 96%

    23 October, Monday

    Time Temperature Precipitation Wind Pressure Humidity
    00:00 -3°C° 0.6 mm 2 mps 623 mmHg 96%
    01:00 -3°C° 0.6 mm 2 mps 623 mmHg 96%
    02:00 -3°C° 0.5 mm 2 mps 623 mmHg 96%
    03:00 -3°C° 0.5 mm 2 mps 623 mmHg 96%
    04:00 -3°C° 0.5 mm 2 mps 623 mmHg 96%
    05:00 -3°C° 0.5 mm 2 mps 623 mmHg 96%
    06:00 -3°C° 0.5 mm 2 mps 623 mmHg 96%
    07:00 -3°C° 0.5 mm 2 mps 623 mmHg 96%
    08:00 -3°C° 0.4 mm 2 mps 623 mmHg 95%
    09:00 -2°C° 0.4 mm 3 mps 623 mmHg 94%
    10:00 -2°C° 0.4 mm 3 mps 623 mmHg 93%
    11:00 -2°C° 0.4 mm 3 mps 623 mmHg 93%
    12:00 -1°C° 0.4 mm 3 mps 624 mmHg 93%
    13:00 -1°C° 0.4 mm 3 mps 624 mmHg 93%
    14:00 -1°C° 0.9 mm 3 mps 624 mmHg 93%
    15:00 -1°C° 0.9 mm 3 mps 624 mmHg 94%
    16:00 -1°C° 0.9 mm 3 mps 624 mmHg 95%
    17:00 -2°C° 1.3 mm 2 mps 624 mmHg 95%
    18:00 -2°C° 1.3 mm 2 mps 625 mmHg 96%
    19:00 -2°C° 1.3 mm 2 mps 625 mmHg 96%
    20:00 -2°C° 0.9 mm 2 mps 625 mmHg 96%
    21:00 -2°C° 0.9 mm 2 mps 626 mmHg 96%
    22:00 -2°C° 0.9 mm 2 mps 626 mmHg 97%
    23:00 -2°C° 0.7 mm 2 mps 626 mmHg 97%

    24 October, Tuesday

    Time Temperature Precipitation Wind Pressure Humidity
    00:00 -2°C° 0.7 mm 2 mps 626 mmHg 97%
    01:00 -2°C° 0.7 mm 2 mps 626 mmHg 97%
    02:00 -2°C° 0.4 mm 2 mps 626 mmHg 97%
    03:00 -2°C° 0.4 mm 2 mps 626 mmHg 97%
    04:00 -2°C° 0.4 mm 2 mps 626 mmHg 97%
    05:00 -1°C° 0.8 mm 2 mps 626 mmHg 97%
    06:00 -1°C° 0.8 mm 2 mps 626 mmHg 97%
    07:00 -1°C° 0.8 mm 2 mps 626 mmHg 97%
    08:00 -1°C° 0.4 mm 2 mps 627 mmHg 96%
    09:00 +1°C° 0.4 mm 2 mps 627 mmHg 96%
    10:00 +1°C° 0.4 mm 2 mps 627 mmHg 95%
    11:00 +2°C° 0.1 mm 2 mps 627 mmHg 94%
    12:00 +2°C° 0.1 mm 2 mps 628 mmHg 94%
    13:00 +2°C° 0.1 mm 2 mps 628 mmHg 94%
    14:00 +2°C° 0.1 mm 2 mps 628 mmHg 94%
    15:00 +2°C° 0.1 mm 2 mps 628 mmHg 95%
    16:00 +2°C° 0.1 mm 2 mps 628 mmHg 96%
    17:00 +2°C° 0.1 mm 2 mps 628 mmHg 96%
    18:00 +2°C° 0.1 mm 2 mps 629 mmHg 96%
    19:00 +2°C° 0.1 mm 2 mps 629 mmHg 96%
    20:00 +2°C° 0.2 mm 2 mps 629 mmHg 97%
    21:00 +2°C° 0.2 mm 2 mps 630 mmHg 97%
    22:00 +2°C° 0.2 mm 2 mps 630 mmHg 97%
    23:00 +2°C° 0.1 mm 2 mps 630 mmHg 97%

    25 October, Wednesday

    Time Temperature Precipitation Wind Pressure Humidity
    00:00 +3°C° 0.1 mm 1 mps 630 mmHg 97%
    01:00 +3°C° 0.1 mm 1 mps 630 mmHg 97%
    02:00 +3°C° 0.1 mm 1 mps 630 mmHg 97%
    03:00 +3°C° 0.1 mm 1 mps 630 mmHg 97%
    04:00 +3°C° 0.1 mm 1 mps 630 mmHg 97%
    05:00 +3°C° 0.1 mm 1 mps 630 mmHg 97%
    06:00 +3°C° 0.1 mm 1 mps 631 mmHg 97%
    07:00 +3°C° 0.1 mm 1 mps 631 mmHg 97%
    08:00 +4°C° 0 mm 1 mps 631 mmHg 96%
    09:00 +5°C° 0 mm 1 mps 631 mmHg 95%
    10:00 +6°C° 0 mm 1 mps 632 mmHg 94%
    11:00 +6°C° 0 mm 1 mps 632 mmHg 93%
    12:00 +7°C° 0 mm 1 mps 632 mmHg 91%
    13:00 +7°C° 0 mm 1 mps 632 mmHg 90%
    14:00 +7°C° 0 mm 1 mps 632 mmHg 91%
    15:00 +7°C° 0 mm 1 mps 631 mmHg 92%
    16:00 +6°C° 0 mm 1 mps 631 mmHg 93%
    17:00 +5°C° 0 mm 1 mps 631 mmHg 93%
    18:00 +4°C° 0 mm 1 mps 631 mmHg 92%
    19:00 +3°C° 0 mm 1 mps 631 mmHg 92%
    20:00 +3°C° 0 mm 1 mps 631 mmHg 90%
    21:00 +2°C° 0 mm 1 mps 631 mmHg 89%
    22:00 +2°C° 0 mm 1 mps 632 mmHg 87%
    23:00 +2°C° 0 mm 1 mps 631 mmHg 86%
    Show more